Cloud_Cover
55 99 100 100 59 12 43 100 100 100 100 100 100 100 79 5 4 1 0 0 0 0 0 0 15 47 0 16 89 68 0 0 0 0 0 57 74 11 0 54 9 12 23 100 97 6 30 87 100
100 76 100 100 70 100 66 92 100 100 100 100 100 100 100 100 31 0 0 0 0 0 0 0 0 1 0 26 4 0 0 0 0 0 0 100 100 85 0 0 2 5 100 76 1 4 2 0 52
100 100 36 100 100 100 98 83 98 100 100 100 100 100 69 81 6 5 0 0 0 0 0 0 0 0 0 0 44 0 0 0 0 0 0 70 100 55 35 0 17 81 34 5 29 92 97 97 94
100 100 70 76 100 98 100 100 100 100 100 100 100 99 15 5 5 10 5 5 4 0 0 0 0 0 0 2 69 0 0 0 0 0 0 100 74 100 21 3 53 3 2 99 100 100 100 100 6
100 100 100 12 76 100 48 98 100 100 100 100 100 100 8 5 4 5 5 5 0 0 0 0 0 2 0 0 0 0 0 0 0 0 2 55 100 100 96 51 54 7 100 100 100 100 100 100 12
100 100 100 100 27 98 74 83 93 96 100 100 100 59 5 30 5 5 5 5 3 1 0 0 0 0 1 0 0 0 0 0 0 0 99 97 62 16 26 57 9 98 100 100 100 100 100 99 27
100 100 95 69 98 100 12 95 100 96 41 76 23 35 56 28 3 2 5 3 3 18 3 0 0 0 0 0 66 0 0 0 0 0 0 7 0 3 5 5 100 100 100 100 100 100 100 98 100
97 100 100 80 47 97 95 100 100 100 100 100 83 79 23 3 5 5 4 5 5 2 2 0 0 0 37 76 20 11 0 0 0 0 0 0 5 2 1 69 100 100 100 100 89 34 27 100 77
0 74 100 100 58 100 100 100 100 100 100 100 26 10 5 9 5 5 5 4 0 0 0 0 0 0 1 15 24 40 93 0 19 2 0 0 2 5 1 36 100 100 100 100 93 100 100 54 3
0 0 71 100 100 100 99 86 50 18 34 12 5 5 5 5 18 5 1 0 0 0 0 0 5 3 0 12 10 30 4 4 5 3 0 0 5 5 5 100 100 100 100 100 100 100 100 5 2
0 0 0 4 100 100 100 100 99 5 5 4 5 5 9 17 5 5 0 5 1 0 0 0 5 5 5 0 0 2 5 4 5 5 5 4 3 67 25 100 100 100 100 100 100 100 78 60 6
0 0 0 3 100 100 100 100 39 5 5 5 5 13 33 5 9 40 4 0 1 8 5 1 3 5 5 5 0 5 2 3 2 3 5 1 5 90 93 5 100 100 100 100 96 5 2 5 4
0 0 0 5 91 100 100 100 81 38 1 3 82 98 17 20 14 0 0 0 5 57 54 5 50 12 53 5 3 5 5 5 3 5 46 23 52 10 63 51 95 100 100 5 14 16 5 8 14
1 0 0 2 92 100 100 100 97 1 3 7 10 3 1 2 4 1 0 0 5 15 5 5 76 95 99 9 5 5 5 5 4 5 91 95 28 78 70 54 58 39 21 63 26 14 70 5 5
16 44 2 0 69 100 100 100 6 15 34 5 5 5 5 5 0 0 1 5 5 7 85 16 88 79 88 5 9 1 10 2 1 5 5 18 100 79 20 65 95 97 97 11 8 15 45 47 47
100 100 89 0 19 36 100 8 22 32 5 5 5 5 1 0 0 0 5 5 5 9 40 97 77 98 96 78 5 0 0 0 5 2 1 5 72 63 72 57 49 24 6 35 55 74 70 69 83
100 28 15 3 4 6 76 16 65 5 5 4 5 0 0 0 0 0 0 0 4 55 65 5 3 1 24 55 1 0 0 0 0 0 0 5 5 5 7 15 43 52 65 60 41 16 27 23 37
100 56 4 6 1 5 6 2 5 0 0 0 0 0 0 0 0 0 0 3 5 40 13 5 5 5 0 0 0 0 0 19 25 24 35 21 18 10 10 10 3 0 5 5 34 49 7 8 5
78 3 66 24 3 2 3 0 5 0 0 0 0 0 0 0 0 0 5 5 100 86 5 23 5 5 4 0 0 0 0 0 0 0 0 0 0 0 0 0 1 29 54 41 5 5 0 0 0
99 82 43 48 2 7 4 0 5 0 0 0 0 0 0 0 0 0 3 5 5 83 97 89 53 5 46 95 91 100 73 5 0 0 1 4 5 8 33 60 66 65 16 5 4 0 0 0 0
100 99 75 13 4 81 7 0 5 5 1 0 0 0 0 0 5 1 5 5 10 86 73 100 100 90 7 34 7 24 76 12 2 0 5 5 5 5 5 5 5 5 5 4 0 0 0 0 3
81 83 54 5 35 98 5 3 5 4 3 0 0 0 0 0 0 0 0 2 5 33 22 8 80 35 17 42 12 13 2 2 1 0 0 2 0 2 5 5 5 5 0 0 0 0 0 0 0
100 29 5 21 100 82 12 4 0 5 5 0 0 0 1 5 6 5 2 3 5 64 95 96 92 96 100 60 5 5 5 6 5 5 5 5 29 5 0 0 0 0 0 0 0 0 0 0 0
100 50 40 77 100 68 8 1 0 5 1 0 2 0 0 1 38 5 5 5 70 22 16 5 70 38 34 22 38 97 97 27 5 5 5 3 1 0 0 0 1 0 0 2 5 5 5 5 5
100 89 97 100 93 15 0 0 0 0 0 0 0 0 1 3 5 5 5 5 2 0 5 5 2 4 3 17 69 12 6 5 23 2 0 0 0 1 5 5 5 8 5 5 5 5 5 5 5
98 21 65 84 11 14 0 0 0 2 0 0 0 0 4 1 0 0 0 0 0 0 0 0 0 5 5 4 5 5 5 10 8 5 4 5 5 48 42 55 43 11 23 36 5 5 5 5 5
100 99 56 5 5 5 0 0 0 0 0 0 0 0 1 0 0 0 0 0 0 0 0 0 3 2 1 1 5 6 85 85 26 10 5 79 98 92 100 81 15 36 10 5 5 5 5 2 5
57 60 30 46 13 5 0 0 0 0 0 0 0 0 0 0 0 0 0 0 0 0 0 3 47 20 5 6 5 50 96 50 49 73 88 91 100 99 52 13 5 5 5 5 5 5 5 5 2
100 100 69 24 5 44 2 0 0 0 0 0 0 0 0 0 0 0 0 0 0 0 0 1 6 9 5 5 5 5 63 100 69 50 61 39 8 5 5 5 5 5 5 5 5 4 0 0 3
100 92 95 77 50 5 1 0 0 0 0 0 0 0 0 0 0 0 0 0 0 0 0 0 0 5 5 82 11 67 81 32 5 9 6 20 5 3 5 5 7 5 5 3 2 0 0 0 0